Location: Goettingen
(51.5300°N, 9.9433°E)
Time: 10:42:25
(UTC+02:00)

ISS - Pass Details

Date: 18 May 2019
Orbit: 407 x 410 km, 51.6° (Epoch: 21 May)

Event Time Altitude Azimuth Distance (km) Brightness Sun altitude
Rises 01:18:40 0° 265° (W) 2,334 0.0 -19.0°
Enters shadow 01:19:06 - 265° (W) 2,154 -0.2 -19.0°
Exits shadow 01:20:43 10° 266° (W) 1,483 -1.0 -19.0°
Reaches altitude 10° 01:20:45 10° 266° (W) 1,474 -1.0 -19.0°
Maximum altitude 01:24:03 87° 358° (N) 415 -3.9 -19.0°
Drops below altitude 10° 01:27:22 10° 86° (E) 1,476 -0.9 -19.0°
Sets 01:29:28 0° 87° (E) 2,338 0.1 -19.0°
